Date_Time,Julian_Date,Latitude,Longitude,Instrument_Depth,Water_Temperature
(yyyy-mm-dd hh:mn:ss UTC),(JD),(+ deg. North),(+ deg. East),(m),(deg. C)
1981-04-21 19:00:00 UTC,2444716.291667,28.7333,-95.2403,0109,22.3000
1981-04-21 19:30:00 UTC,2444716.312500,28.7333,-95.2403,0109,22.3000
1981-04-21 20:00:00 UTC,2444716.333333,28.7333,-95.2403,0109,22.3000
1981-04-21 20:30:00 UTC,2444716.354167,28.7333,-95.2403,0109,22.3000
1981-04-21 21:00:00 UTC,2444716.375000,28.7333,-95.2403,0109,22.3000
1981-04-21 21:30:00 UTC,2444716.395833,28.7333,-95.2403,0109,22.2000
1981-04-21 22:00:00 UTC,2444716.416667,28.7333,-95.2403,0109,22.0000
1981-04-21 22:30:00 UTC,2444716.437500,28.7333,-95.2403,0109,21.9000
1981-04-21 23:00:00 UTC,2444716.458333,28.7333,-95.2403,0109,21.9000
1981-04-21 23:30:00 UTC,2444716.479167,28.7333,-95.2403,0109,22.0000
1981-04-22 00:00:00 UTC,2444716.500000,28.7333,-95.2403,0109,22.1000
1981-04-22 00:30:00 UTC,2444716.520833,28.7333,-95.2403,0109,22.2000
1981-04-22 01:00:00 UTC,2444716.541667,28.7333,-95.2403,0109,22.3000
1981-04-22 01:30:00 UTC,2444716.562500,28.7333,-95.2403,0109,22.3000
1981-04-22 02:00:00 UTC,2444716.583333,28.7333,-95.2403,0109,22.4000
1981-04-22 02:30:00 UTC,2444716.604167,28.7333,-95.2403,0109,22.4000
1981-04-22 03:00:00 UTC,2444716.625000,28.7333,-95.2403,0109,22.4000
1981-04-22 03:30:00 UTC,2444716.645833,28.7333,-95.2403,0109,22.4000
1981-04-22 04:00:00 UTC,2444716.666667,28.7333,-95.2403,0109,22.3000
1981-04-22 04:30:00 UTC,2444716.687500,28.7333,-95.2403,0109,22.3000
1981-04-22 05:00:00 UTC,2444716.708333,28.7333,-95.2403,0109,22.2000
1981-04-22 05:30:00 UTC,2444716.729167,28.7333,-95.2403,0109,22.1000
1981-04-22 06:00:00 UTC,2444716.750000,28.7333,-95.2403,0109,22.1000
1981-04-22 06:30:00 UTC,2444716.770833,28.7333,-95.2403,0109,22.2000
1981-04-22 07:00:00 UTC,2444716.791667,28.7333,-95.2403,0109,22.4000
1981-04-22 07:30:00 UTC,2444716.812500,28.7333,-95.2403,0109,22.5000
1981-04-22 08:00:00 UTC,2444716.833333,28.7333,-95.2403,0109,22.5000
1981-04-22 08:30:00 UTC,2444716.854167,28.7333,-95.2403,0109,22.5000
1981-04-22 09:00:00 UTC,2444716.875000,28.7333,-95.2403,0109,22.5000
1981-04-22 09:30:00 UTC,2444716.895833,28.7333,-95.2403,0109,22.6000
1981-04-22 10:00:00 UTC,2444716.916667,28.7333,-95.2403,0109,22.6000
1981-04-22 10:30:00 UTC,2444716.937500,28.7333,-95.2403,0109,22.6000
1981-04-22 11:00:00 UTC,2444716.958333,28.7333,-95.2403,0109,22.6000
1981-04-22 11:30:00 UTC,2444716.979167,28.7333,-95.2403,0109,22.6000
1981-04-22 12:00:00 UTC,2444717.000000,28.7333,-95.2403,0109,22.6000
1981-04-22 12:30:00 UTC,2444717.020833,28.7333,-95.2403,0109,22.5000
1981-04-22 13:00:00 UTC,2444717.041667,28.7333,-95.2403,0109,22.5000
1981-04-22 13:30:00 UTC,2444717.062500,28.7333,-95.2403,0109,22.3000
1981-04-22 14:00:00 UTC,2444717.083333,28.7333,-95.2403,0109,22.0000
1981-04-22 14:30:00 UTC,2444717.104167,28.7333,-95.2403,0109,21.8000
1981-04-22 15:00:00 UTC,2444717.125000,28.7333,-95.2403,0109,21.8000
1981-04-22 15:30:00 UTC,2444717.145833,28.7333,-95.2403,0109,21.9000
1981-04-22 16:00:00 UTC,2444717.166667,28.7333,-95.2403,0109,22.0000
1981-04-22 16:30:00 UTC,2444717.187500,28.7333,-95.2403,0109,22.0000
1981-04-22 17:00:00 UTC,2444717.208333,28.7333,-95.2403,0109,22.1000
1981-04-22 17:30:00 UTC,2444717.229167,28.7333,-95.2403,0109,22.3000
1981-04-22 18:00:00 UTC,2444717.250000,28.7333,-95.2403,0109,22.4000
1981-04-22 18:30:00 UTC,2444717.270833,28.7333,-95.2403,0109,22.4000
1981-04-22 19:00:00 UTC,2444717.291667,28.7333,-95.2403,0109,22.4000
1981-04-22 19:30:00 UTC,2444717.312500,28.7333,-95.2403,0109,22.4000
1981-04-22 20:00:00 UTC,2444717.333333,28.7333,-95.2403,0109,22.3000
1981-04-22 20:30:00 UTC,2444717.354167,28.7333,-95.2403,0109,22.1000
1981-04-22 21:00:00 UTC,2444717.375000,28.7333,-95.2403,0109,22.0000
1981-04-22 21:30:00 UTC,2444717.395833,28.7333,-95.2403,0109,21.9000
1981-04-22 22:00:00 UTC,2444717.416667,28.7333,-95.2403,0109,21.9000
1981-04-22 22:30:00 UTC,2444717.437500,28.7333,-95.2403,0109,22.0000
1981-04-22 23:00:00 UTC,2444717.458333,28.7333,-95.2403,0109,22.0000
1981-04-22 23:30:00 UTC,2444717.479167,28.7333,-95.2403,0109,22.0000
1981-04-23 00:00:00 UTC,2444717.500000,28.7333,-95.2403,0109,22.0000
1981-04-23 00:30:00 UTC,2444717.520833,28.7333,-95.2403,0109,22.0000
1981-04-23 01:00:00 UTC,2444717.541667,28.7333,-95.2403,0109,22.0000
1981-04-23 01:30:00 UTC,2444717.562500,28.7333,-95.2403,0109,22.1000
1981-04-23 02:00:00 UTC,2444717.583333,28.7333,-95.2403,0109,22.2000
1981-04-23 02:30:00 UTC,2444717.604167,28.7333,-95.2403,0109,22.3000
1981-04-23 03:00:00 UTC,2444717.625000,28.7333,-95.2403,0109,22.4000
1981-04-23 03:30:00 UTC,2444717.645833,28.7333,-95.2403,0109,22.4000
1981-04-23 04:00:00 UTC,2444717.666667,28.7333,-95.2403,0109,22.4000
1981-04-23 04:30:00 UTC,2444717.687500,28.7333,-95.2403,0109,22.4000
1981-04-23 05:00:00 UTC,2444717.708333,28.7333,-95.2403,0109,22.3000
1981-04-23 05:30:00 UTC,2444717.729167,28.7333,-95.2403,0109,22.3000
1981-04-23 06:00:00 UTC,2444717.750000,28.7333,-95.2403,0109,22.3000
1981-04-23 06:30:00 UTC,2444717.770833,28.7333,-95.2403,0109,22.3000
1981-04-23 07:00:00 UTC,2444717.791667,28.7333,-95.2403,0109,22.3000
1981-04-23 07:30:00 UTC,2444717.812500,28.7333,-95.2403,0109,22.3000
1981-04-23 08:00:00 UTC,2444717.833333,28.7333,-95.2403,0109,22.3000
1981-04-23 08:30:00 UTC,2444717.854167,28.7333,-95.2403,0109,22.3000
1981-04-23 09:00:00 UTC,2444717.875000,28.7333,-95.2403,0109,22.3000
1981-04-23 09:30:00 UTC,2444717.895833,28.7333,-95.2403,0109,22.3000
1981-04-23 10:00:00 UTC,2444717.916667,28.7333,-95.2403,0109,22.3000
1981-04-23 10:30:00 UTC,2444717.937500,28.7333,-95.2403,0109,22.3000
1981-04-23 11:00:00 UTC,2444717.958333,28.7333,-95.2403,0109,22.3000
1981-04-23 11:30:00 UTC,2444717.979167,28.7333,-95.2403,0109,22.3000
1981-04-23 12:00:00 UTC,2444718.000000,28.7333,-95.2403,0109,22.4000
1981-04-23 12:30:00 UTC,2444718.020833,28.7333,-95.2403,0109,22.4000
1981-04-23 13:00:00 UTC,2444718.041667,28.7333,-95.2403,0109,22.4000
1981-04-23 13:30:00 UTC,2444718.062500,28.7333,-95.2403,0109,22.4000
1981-04-23 14:00:00 UTC,2444718.083333,28.7333,-95.2403,0109,22.4000
1981-04-23 14:30:00 UTC,2444718.104167,28.7333,-95.2403,0109,22.4000
1981-04-23 15:00:00 UTC,2444718.125000,28.7333,-95.2403,0109,22.4000
1981-04-23 15:30:00 UTC,2444718.145833,28.7333,-95.2403,0109,22.4000
1981-04-23 16:00:00 UTC,2444718.166667,28.7333,-95.2403,0109,22.4000
1981-04-23 16:30:00 UTC,2444718.187500,28.7333,-95.2403,0109,22.4000
1981-04-23 17:00:00 UTC,2444718.208333,28.7333,-95.2403,0109,22.4000
1981-04-23 17:30:00 UTC,2444718.229167,28.7333,-95.2403,0109,22.4000
1981-04-23 18:00:00 UTC,2444718.250000,28.7333,-95.2403,0109,22.4000
1981-04-23 18:30:00 UTC,2444718.270833,28.7333,-95.2403,0109,22.4000
1981-04-23 19:00:00 UTC,2444718.291667,28.7333,-95.2403,0109,22.4000
1981-04-23 19:30:00 UTC,2444718.312500,28.7333,-95.2403,0109,22.4000
1981-04-23 20:00:00 UTC,2444718.333333,28.7333,-95.2403,0109,22.4000
1981-04-23 20:30:00 UTC,2444718.354167,28.7333,-95.2403,0109,22.4000
1981-04-23 21:00:00 UTC,2444718.375000,28.7333,-95.2403,0109,22.4000
1981-04-23 21:30:00 UTC,2444718.395833,28.7333,-95.2403,0109,22.4000
1981-04-23 22:00:00 UTC,2444718.416667,28.7333,-95.2403,0109,22.4000
1981-04-23 22:30:00 UTC,2444718.437500,28.7333,-95.2403,0109,22.4000
1981-04-23 23:00:00 UTC,2444718.458333,28.7333,-95.2403,0109,22.4000
1981-04-23 23:30:00 UTC,2444718.479167,28.7333,-95.2403,0109,22.4000
1981-04-24 00:00:00 UTC,2444718.500000,28.7333,-95.2403,0109,22.4000
1981-04-24 00:30:00 UTC,2444718.520833,28.7333,-95.2403,0109,22.4000
1981-04-24 01:00:00 UTC,2444718.541667,28.7333,-95.2403,0109,22.4000
1981-04-24 01:30:00 UTC,2444718.562500,28.7333,-95.2403,0109,22.4000
1981-04-24 02:00:00 UTC,2444718.583333,28.7333,-95.2403,0109,22.5000
1981-04-24 02:30:00 UTC,2444718.604167,28.7333,-95.2403,0109,22.5000
1981-04-24 03:00:00 UTC,2444718.625000,28.7333,-95.2403,0109,22.5000
1981-04-24 03:30:00 UTC,2444718.645833,28.7333,-95.2403,0109,22.6000
1981-04-24 04:00:00 UTC,2444718.666667,28.7333,-95.2403,0109,22.5000
1981-04-24 04:30:00 UTC,2444718.687500,28.7333,-95.2403,0109,22.5000
1981-04-24 05:00:00 UTC,2444718.708333,28.7333,-95.2403,0109,22.5000
1981-04-24 05:30:00 UTC,2444718.729167,28.7333,-95.2403,0109,22.4000
1981-04-24 06:00:00 UTC,2444718.750000,28.7333,-95.2403,0109,22.4000
1981-04-24 06:30:00 UTC,2444718.770833,28.7333,-95.2403,0109,22.4000
1981-04-24 07:00:00 UTC,2444718.791667,28.7333,-95.2403,0109,22.4000
1981-04-24 07:30:00 UTC,2444718.812500,28.7333,-95.2403,0109,22.4000
1981-04-24 08:00:00 UTC,2444718.833333,28.7333,-95.2403,0109,22.4000
1981-04-24 08:30:00 UTC,2444718.854167,28.7333,-95.2403,0109,22.4000
1981-04-24 09:00:00 UTC,2444718.875000,28.7333,-95.2403,0109,22.4000
1981-04-24 09:30:00 UTC,2444718.895833,28.7333,-95.2403,0109,22.5000
1981-04-24 10:00:00 UTC,2444718.916667,28.7333,-95.2403,0109,22.5000
1981-04-24 10:30:00 UTC,2444718.937500,28.7333,-95.2403,0109,22.5000
1981-04-24 11:00:00 UTC,2444718.958333,28.7333,-95.2403,0109,22.5000
1981-04-24 11:30:00 UTC,2444718.979167,28.7333,-95.2403,0109,22.5000
1981-04-24 12:00:00 UTC,2444719.000000,28.7333,-95.2403,0109,22.4000
1981-04-24 12:30:00 UTC,2444719.020833,28.7333,-95.2403,0109,22.4000
1981-04-24 13:00:00 UTC,2444719.041667,28.7333,-95.2403,0109,22.4000
1981-04-24 13:30:00 UTC,2444719.062500,28.7333,-95.2403,0109,22.4000
1981-04-24 14:00:00 UTC,2444719.083333,28.7333,-95.2403,0109,22.4000
1981-04-24 14:30:00 UTC,2444719.104167,28.7333,-95.2403,0109,22.4000
1981-04-24 15:00:00 UTC,2444719.125000,28.7333,-95.2403,0109,22.4000
1981-04-24 15:30:00 UTC,2444719.145833,28.7333,-95.2403,0109,22.4000
1981-04-24 16:00:00 UTC,2444719.166667,28.7333,-95.2403,0109,22.4000
1981-04-24 16:30:00 UTC,2444719.187500,28.7333,-95.2403,0109,22.5000
1981-04-24 17:00:00 UTC,2444719.208333,28.7333,-95.2403,0109,22.5000
1981-04-24 17:30:00 UTC,2444719.229167,28.7333,-95.2403,0109,22.5000
1981-04-24 18:00:00 UTC,2444719.250000,28.7333,-95.2403,0109,22.5000
1981-04-24 18:30:00 UTC,2444719.270833,28.7333,-95.2403,0109,22.5000
1981-04-24 19:00:00 UTC,2444719.291667,28.7333,-95.2403,0109,22.5000
1981-04-24 19:30:00 UTC,2444719.312500,28.7333,-95.2403,0109,22.5000
1981-04-24 20:00:00 UTC,2444719.333333,28.7333,-95.2403,0109,22.6000
1981-04-24 20:30:00 UTC,2444719.354167,28.7333,-95.2403,0109,22.6000
1981-04-24 21:00:00 UTC,2444719.375000,28.7333,-95.2403,0109,22.6000
1981-04-24 21:30:00 UTC,2444719.395833,28.7333,-95.2403,0109,22.5000
1981-04-24 22:00:00 UTC,2444719.416667,28.7333,-95.2403,0109,22.5000
1981-04-24 22:30:00 UTC,2444719.437500,28.7333,-95.2403,0109,22.6000
1981-04-24 23:00:00 UTC,2444719.458333,28.7333,-95.2403,0109,22.6000
1981-04-24 23:30:00 UTC,2444719.479167,28.7333,-95.2403,0109,22.6000
1981-04-25 00:00:00 UTC,2444719.500000,28.7333,-95.2403,0109,22.5000
1981-04-25 00:30:00 UTC,2444719.520833,28.7333,-95.2403,0109,22.5000
1981-04-25 01:00:00 UTC,2444719.541667,28.7333,-95.2403,0109,22.5000
1981-04-25 01:30:00 UTC,2444719.562500,28.7333,-95.2403,0109,22.5000
1981-04-25 02:00:00 UTC,2444719.583333,28.7333,-95.2403,0109,22.5000
1981-04-25 02:30:00 UTC,2444719.604167,28.7333,-95.2403,0109,22.5000
1981-04-25 03:00:00 UTC,2444719.625000,28.7333,-95.2403,0109,22.5000
1981-04-25 03:30:00 UTC,2444719.645833,28.7333,-95.2403,0109,22.5000
1981-04-25 04:00:00 UTC,2444719.666667,28.7333,-95.2403,0109,22.5000
1981-04-25 04:30:00 UTC,2444719.687500,28.7333,-95.2403,0109,22.5000
1981-04-25 05:00:00 UTC,2444719.708333,28.7333,-95.2403,0109,22.5000
1981-04-25 05:30:00 UTC,2444719.729167,28.7333,-95.2403,0109,22.5000
1981-04-25 06:00:00 UTC,2444719.750000,28.7333,-95.2403,0109,22.4000
1981-04-25 06:30:00 UTC,2444719.770833,28.7333,-95.2403,0109,22.3000
1981-04-25 07:00:00 UTC,2444719.791667,28.7333,-95.2403,0109,22.1000
1981-04-25 07:30:00 UTC,2444719.812500,28.7333,-95.2403,0109,21.9000
1981-04-25 08:00:00 UTC,2444719.833333,28.7333,-95.2403,0109,21.9000
1981-04-25 08:30:00 UTC,2444719.854167,28.7333,-95.2403,0109,22.0000
1981-04-25 09:00:00 UTC,2444719.875000,28.7333,-95.2403,0109,22.0000
1981-04-25 09:30:00 UTC,2444719.895833,28.7333,-95.2403,0109,22.0000
1981-04-25 10:00:00 UTC,2444719.916667,28.7333,-95.2403,0109,22.1000
1981-04-25 10:30:00 UTC,2444719.937500,28.7333,-95.2403,0109,22.2000
1981-04-25 11:00:00 UTC,2444719.958333,28.7333,-95.2403,0109,22.2000
1981-04-25 11:30:00 UTC,2444719.979167,28.7333,-95.2403,0109,22.2000
1981-04-25 12:00:00 UTC,2444720.000000,28.7333,-95.2403,0109,22.1000
1981-04-25 12:30:00 UTC,2444720.020833,28.7333,-95.2403,0109,22.1000
1981-04-25 13:00:00 UTC,2444720.041667,28.7333,-95.2403,0109,22.1000
1981-04-25 13:30:00 UTC,2444720.062500,28.7333,-95.2403,0109,22.1000
1981-04-25 14:00:00 UTC,2444720.083333,28.7333,-95.2403,0109,22.1000
1981-04-25 14:30:00 UTC,2444720.104167,28.7333,-95.2403,0109,22.1000
1981-04-25 15:00:00 UTC,2444720.125000,28.7333,-95.2403,0109,22.0000
1981-04-25 15:30:00 UTC,2444720.145833,28.7333,-95.2403,0109,22.1000
1981-04-25 16:00:00 UTC,2444720.166667,28.7333,-95.2403,0109,22.1000
1981-04-25 16:30:00 UTC,2444720.187500,28.7333,-95.2403,0109,22.1000
1981-04-25 17:00:00 UTC,2444720.208333,28.7333,-95.2403,0109,22.0000
1981-04-25 17:30:00 UTC,2444720.229167,28.7333,-95.2403,0109,22.0000
1981-04-25 18:00:00 UTC,2444720.250000,28.7333,-95.2403,0109,22.0000
1981-04-25 18:30:00 UTC,2444720.270833,28.7333,-95.2403,0109,21.9000
1981-04-25 19:00:00 UTC,2444720.291667,28.7333,-95.2403,0109,21.9000
1981-04-25 19:30:00 UTC,2444720.312500,28.7333,-95.2403,0109,21.9000
1981-04-25 20:00:00 UTC,2444720.333333,28.7333,-95.2403,0109,21.9000
1981-04-25 20:30:00 UTC,2444720.354167,28.7333,-95.2403,0109,21.8000
1981-04-25 21:00:00 UTC,2444720.375000,28.7333,-95.2403,0109,21.8000
1981-04-25 21:30:00 UTC,2444720.395833,28.7333,-95.2403,0109,21.9000
1981-04-25 22:00:00 UTC,2444720.416667,28.7333,-95.2403,0109,21.9000
1981-04-25 22:30:00 UTC,2444720.437500,28.7333,-95.2403,0109,21.9000
1981-04-25 23:00:00 UTC,2444720.458333,28.7333,-95.2403,0109,21.8000
1981-04-25 23:30:00 UTC,2444720.479167,28.7333,-95.2403,0109,21.8000
1981-04-26 00:00:00 UTC,2444720.500000,28.7333,-95.2403,0109,21.8000
1981-04-26 00:30:00 UTC,2444720.520833,28.7333,-95.2403,0109,21.8000
1981-04-26 01:00:00 UTC,2444720.541667,28.7333,-95.2403,0109,21.8000
1981-04-26 01:30:00 UTC,2444720.562500,28.7333,-95.2403,0109,21.8000
1981-04-26 02:00:00 UTC,2444720.583333,28.7333,-95.2403,0109,21.8000
1981-04-26 02:30:00 UTC,2444720.604167,28.7333,-95.2403,0109,21.8000
1981-04-26 03:00:00 UTC,2444720.625000,28.7333,-95.2403,0109,21.8000
1981-04-26 03:30:00 UTC,2444720.645833,28.7333,-95.2403,0109,21.8000
1981-04-26 04:00:00 UTC,2444720.666667,28.7333,-95.2403,0109,21.8000
1981-04-26 04:30:00 UTC,2444720.687500,28.7333,-95.2403,0109,21.8000
1981-04-26 05:00:00 UTC,2444720.708333,28.7333,-95.2403,0109,21.8000
1981-04-26 05:30:00 UTC,2444720.729167,28.7333,-95.2403,0109,21.8000
1981-04-26 06:00:00 UTC,2444720.750000,28.7333,-95.2403,0109,21.9000
1981-04-26 06:30:00 UTC,2444720.770833,28.7333,-95.2403,0109,22.0000
1981-04-26 07:00:00 UTC,2444720.791667,28.7333,-95.2403,0109,22.0000
1981-04-26 07:30:00 UTC,2444720.812500,28.7333,-95.2403,0109,21.9000
1981-04-26 08:00:00 UTC,2444720.833333,28.7333,-95.2403,0109,21.9000
1981-04-26 08:30:00 UTC,2444720.854167,28.7333,-95.2403,0109,21.9000
1981-04-26 09:00:00 UTC,2444720.875000,28.7333,-95.2403,0109,21.8000
1981-04-26 09:30:00 UTC,2444720.895833,28.7333,-95.2403,0109,21.8000
1981-04-26 10:00:00 UTC,2444720.916667,28.7333,-95.2403,0109,21.8000
1981-04-26 10:30:00 UTC,2444720.937500,28.7333,-95.2403,0109,21.8000
1981-04-26 11:00:00 UTC,2444720.958333,28.7333,-95.2403,0109,21.8000
1981-04-26 11:30:00 UTC,2444720.979167,28.7333,-95.2403,0109,21.8000
1981-04-26 12:00:00 UTC,2444721.000000,28.7333,-95.2403,0109,21.8000
1981-04-26 12:30:00 UTC,2444721.020833,28.7333,-95.2403,0109,21.8000
1981-04-26 13:00:00 UTC,2444721.041667,28.7333,-95.2403,0109,21.8000
1981-04-26 13:30:00 UTC,2444721.062500,28.7333,-95.2403,0109,21.8000
1981-04-26 14:00:00 UTC,2444721.083333,28.7333,-95.2403,0109,21.8000
1981-04-26 14:30:00 UTC,2444721.104167,28.7333,-95.2403,0109,21.8000
1981-04-26 15:00:00 UTC,2444721.125000,28.7333,-95.2403,0109,21.8000
1981-04-26 15:30:00 UTC,2444721.145833,28.7333,-95.2403,0109,21.8000
1981-04-26 16:00:00 UTC,2444721.166667,28.7333,-95.2403,0109,21.8000
1981-04-26 16:30:00 UTC,2444721.187500,28.7333,-95.2403,0109,21.8000
1981-04-26 17:00:00 UTC,2444721.208333,28.7333,-95.2403,0109,21.8000
1981-04-26 17:30:00 UTC,2444721.229167,28.7333,-95.2403,0109,21.8000
1981-04-26 18:00:00 UTC,2444721.250000,28.7333,-95.2403,0109,21.7000
1981-04-26 18:30:00 UTC,2444721.270833,28.7333,-95.2403,0109,21.7000
1981-04-26 19:00:00 UTC,2444721.291667,28.7333,-95.2403,0109,21.7000
1981-04-26 19:30:00 UTC,2444721.312500,28.7333,-95.2403,0109,21.8000
1981-04-26 20:00:00 UTC,2444721.333333,28.7333,-95.2403,0109,21.8000
1981-04-26 20:30:00 UTC,2444721.354167,28.7333,-95.2403,0109,21.7000
1981-04-26 21:00:00 UTC,2444721.375000,28.7333,-95.2403,0109,21.7000
1981-04-26 21:30:00 UTC,2444721.395833,28.7333,-95.2403,0109,21.7000
1981-04-26 22:00:00 UTC,2444721.416667,28.7333,-95.2403,0109,21.7000
1981-04-26 22:30:00 UTC,2444721.437500,28.7333,-95.2403,0109,21.7000
1981-04-26 23:00:00 UTC,2444721.458333,28.7333,-95.2403,0109,21.7000
1981-04-26 23:30:00 UTC,2444721.479167,28.7333,-95.2403,0109,21.7000
1981-04-27 00:00:00 UTC,2444721.500000,28.7333,-95.2403,0109,21.7000
1981-04-27 00:30:00 UTC,2444721.520833,28.7333,-95.2403,0109,21.7000
1981-04-27 01:00:00 UTC,2444721.541667,28.7333,-95.2403,0109,21.7000
1981-04-27 01:30:00 UTC,2444721.562500,28.7333,-95.2403,0109,21.8000
1981-04-27 02:00:00 UTC,2444721.583333,28.7333,-95.2403,0109,21.9000
1981-04-27 02:30:00 UTC,2444721.604167,28.7333,-95.2403,0109,22.1000
1981-04-27 03:00:00 UTC,2444721.625000,28.7333,-95.2403,0109,22.2000
1981-04-27 03:30:00 UTC,2444721.645833,28.7333,-95.2403,0109,22.3000
1981-04-27 04:00:00 UTC,2444721.666667,28.7333,-95.2403,0109,22.3000
1981-04-27 04:30:00 UTC,2444721.687500,28.7333,-95.2403,0109,22.3000
1981-04-27 05:00:00 UTC,2444721.708333,28.7333,-95.2403,0109,22.3000
1981-04-27 05:30:00 UTC,2444721.729167,28.7333,-95.2403,0109,22.3000
1981-04-27 06:00:00 UTC,2444721.750000,28.7333,-95.2403,0109,22.2000
1981-04-27 06:30:00 UTC,2444721.770833,28.7333,-95.2403,0109,22.2000
1981-04-27 07:00:00 UTC,2444721.791667,28.7333,-95.2403,0109,22.1000
1981-04-27 07:30:00 UTC,2444721.812500,28.7333,-95.2403,0109,22.1000
1981-04-27 08:00:00 UTC,2444721.833333,28.7333,-95.2403,0109,22.1000
1981-04-27 08:30:00 UTC,2444721.854167,28.7333,-95.2403,0109,22.2000
1981-04-27 09:00:00 UTC,2444721.875000,28.7333,-95.2403,0109,22.2000
1981-04-27 09:30:00 UTC,2444721.895833,28.7333,-95.2403,0109,22.2000
1981-04-27 10:00:00 UTC,2444721.916667,28.7333,-95.2403,0109,22.2000
1981-04-27 10:30:00 UTC,2444721.937500,28.7333,-95.2403,0109,22.2000
1981-04-27 11:00:00 UTC,2444721.958333,28.7333,-95.2403,0109,22.1000
1981-04-27 11:30:00 UTC,2444721.979167,28.7333,-95.2403,0109,22.1000
1981-04-27 12:00:00 UTC,2444722.000000,28.7333,-95.2403,0109,22.0000
1981-04-27 12:30:00 UTC,2444722.020833,28.7333,-95.2403,0109,22.0000
1981-04-27 13:00:00 UTC,2444722.041667,28.7333,-95.2403,0109,22.0000
1981-04-27 13:30:00 UTC,2444722.062500,28.7333,-95.2403,0109,22.0000
1981-04-27 14:00:00 UTC,2444722.083333,28.7333,-95.2403,0109,22.0000
1981-04-27 14:30:00 UTC,2444722.104167,28.7333,-95.2403,0109,22.0000
1981-04-27 15:00:00 UTC,2444722.125000,28.7333,-95.2403,0109,22.0000
1981-04-27 15:30:00 UTC,2444722.145833,28.7333,-95.2403,0109,22.0000
1981-04-27 16:00:00 UTC,2444722.166667,28.7333,-95.2403,0109,22.0000
1981-04-27 16:30:00 UTC,2444722.187500,28.7333,-95.2403,0109,22.0000
1981-04-27 17:00:00 UTC,2444722.208333,28.7333,-95.2403,0109,22.0000
1981-04-27 17:30:00 UTC,2444722.229167,28.7333,-95.2403,0109,22.0000
1981-04-27 18:00:00 UTC,2444722.250000,28.7333,-95.2403,0109,21.9000
1981-04-27 18:30:00 UTC,2444722.270833,28.7333,-95.2403,0109,21.9000
1981-04-27 19:00:00 UTC,2444722.291667,28.7333,-95.2403,0109,22.0000
1981-04-27 19:30:00 UTC,2444722.312500,28.7333,-95.2403,0109,22.0000
1981-04-27 20:00:00 UTC,2444722.333333,28.7333,-95.2403,0109,22.1000
1981-04-27 20:30:00 UTC,2444722.354167,28.7333,-95.2403,0109,22.1000
1981-04-27 21:00:00 UTC,2444722.375000,28.7333,-95.2403,0109,22.1000
1981-04-27 21:30:00 UTC,2444722.395833,28.7333,-95.2403,0109,22.0000
1981-04-27 22:00:00 UTC,2444722.416667,28.7333,-95.2403,0109,22.0000
1981-04-27 22:30:00 UTC,2444722.437500,28.7333,-95.2403,0109,22.0000
1981-04-27 23:00:00 UTC,2444722.458333,28.7333,-95.2403,0109,22.0000
1981-04-27 23:30:00 UTC,2444722.479167,28.7333,-95.2403,0109,22.1000
1981-04-28 00:00:00 UTC,2444722.500000,28.7333,-95.2403,0109,22.1000
1981-04-28 00:30:00 UTC,2444722.520833,28.7333,-95.2403,0109,22.2000
1981-04-28 01:00:00 UTC,2444722.541667,28.7333,-95.2403,0109,22.2000
1981-04-28 01:30:00 UTC,2444722.562500,28.7333,-95.2403,0109,22.2000
1981-04-28 02:00:00 UTC,2444722.583333,28.7333,-95.2403,0109,22.1000
1981-04-28 02:30:00 UTC,2444722.604167,28.7333,-95.2403,0109,22.0000
1981-04-28 03:00:00 UTC,2444722.625000,28.7333,-95.2403,0109,22.0000
1981-04-28 03:30:00 UTC,2444722.645833,28.7333,-95.2403,0109,22.0000
1981-04-28 04:00:00 UTC,2444722.666667,28.7333,-95.2403,0109,22.0000
1981-04-28 04:30:00 UTC,2444722.687500,28.7333,-95.2403,0109,22.1000
1981-04-28 05:00:00 UTC,2444722.708333,28.7333,-95.2403,0109,22.1000
1981-04-28 05:30:00 UTC,2444722.729167,28.7333,-95.2403,0109,22.1000
1981-04-28 06:00:00 UTC,2444722.750000,28.7333,-95.2403,0109,22.1000
1981-04-28 06:30:00 UTC,2444722.770833,28.7333,-95.2403,0109,22.1000
1981-04-28 07:00:00 UTC,2444722.791667,28.7333,-95.2403,0109,22.1000
1981-04-28 07:30:00 UTC,2444722.812500,28.7333,-95.2403,0109,22.1000
1981-04-28 08:00:00 UTC,2444722.833333,28.7333,-95.2403,0109,22.1000
1981-04-28 08:30:00 UTC,2444722.854167,28.7333,-95.2403,0109,22.1000
1981-04-28 09:00:00 UTC,2444722.875000,28.7333,-95.2403,0109,22.0000
1981-04-28 09:30:00 UTC,2444722.895833,28.7333,-95.2403,0109,22.1000
1981-04-28 10:00:00 UTC,2444722.916667,28.7333,-95.2403,0109,22.1000
1981-04-28 10:30:00 UTC,2444722.937500,28.7333,-95.2403,0109,22.0000
1981-04-28 11:00:00 UTC,2444722.958333,28.7333,-95.2403,0109,22.0000
1981-04-28 11:30:00 UTC,2444722.979167,28.7333,-95.2403,0109,22.0000
1981-04-28 12:00:00 UTC,2444723.000000,28.7333,-95.2403,0109,22.0000
1981-04-28 12:30:00 UTC,2444723.020833,28.7333,-95.2403,0109,22.0000
1981-04-28 13:00:00 UTC,2444723.041667,28.7333,-95.2403,0109,22.0000
1981-04-28 13:30:00 UTC,2444723.062500,28.7333,-95.2403,0109,22.0000
1981-04-28 14:00:00 UTC,2444723.083333,28.7333,-95.2403,0109,22.1000
1981-04-28 14:30:00 UTC,2444723.104167,28.7333,-95.2403,0109,22.1000
1981-04-28 15:00:00 UTC,2444723.125000,28.7333,-95.2403,0109,22.1000
1981-04-28 15:30:00 UTC,2444723.145833,28.7333,-95.2403,0109,22.1000
1981-04-28 16:00:00 UTC,2444723.166667,28.7333,-95.2403,0109,22.1000
1981-04-28 16:30:00 UTC,2444723.187500,28.7333,-95.2403,0109,22.1000
1981-04-28 17:00:00 UTC,2444723.208333,28.7333,-95.2403,0109,22.0000
1981-04-28 17:30:00 UTC,2444723.229167,28.7333,-95.2403,0109,22.0000
1981-04-28 18:00:00 UTC,2444723.250000,28.7333,-95.2403,0109,22.0000
1981-04-28 18:30:00 UTC,2444723.270833,28.7333,-95.2403,0109,22.0000
1981-04-28 19:00:00 UTC,2444723.291667,28.7333,-95.2403,0109,21.9000
1981-04-28 19:30:00 UTC,2444723.312500,28.7333,-95.2403,0109,22.0000
1981-04-28 20:00:00 UTC,2444723.333333,28.7333,-95.2403,0109,22.0000
1981-04-28 20:30:00 UTC,2444723.354167,28.7333,-95.2403,0109,22.0000
1981-04-28 21:00:00 UTC,2444723.375000,28.7333,-95.2403,0109,22.0000
1981-04-28 21:30:00 UTC,2444723.395833,28.7333,-95.2403,0109,22.1000
1981-04-28 22:00:00 UTC,2444723.416667,28.7333,-95.2403,0109,22.3000
1981-04-28 22:30:00 UTC,2444723.437500,28.7333,-95.2403,0109,22.4000
1981-04-28 23:00:00 UTC,2444723.458333,28.7333,-95.2403,0109,22.4000